Regional Weather Roundup
Issued by NWS

Home | Current Version | Previous Version | Graphics & Text | Print | Product List | Glossary On
Versions: 1 2 3 4 5 6 7 8 9 10 11 12 13 14 15 16 17 18 19 20 21 22 23 24 25 26 27 28 29 30 31 32 33 34 35 36 37 38 39 40 41 42 43 44 45 46 47 48 49 50
000
ASUS43 KOAX 301610
RWRNE

WEATHER ROUNDUP FOR NEBRASKA
NATIONAL WEATHER SERVICE OMAHA NE
1100 AM CDT SAT MAY 30 2015

NOTES: SATELLITE DATA IS BEING USED TO AUGMENT CLOUD COVER ABOVE
       12000 FEET.
       "FAIR" INDICATES FEW OR NO CLOUDS BELOW 12,000 FEET WITH NO
       SIGNIFICANT WEATHER AND/OR OBSTRUCTIONS TO VISIBILITY.

  * THESE STATIONS DO NOT REPORT WEATHER SUCH AS RAIN...SNOW OR FOG.

NEZ001>004-019>022-054>056-301700-
NEBRASKA PANHANDLE

CITY           SKY/WX    TMP DP  RH WIND       PRES   REMARKS
SCOTTSBLUFF    CLOUDY    54  48  80 SE12      30.27S
ALLIANCE       PTSUNNY   51  41  68 SE7       30.29S
CHADRON        SUNNY     54  43  66 SE7       30.28F
KIMBALL          N/A    N/A N/A N/A MISG        N/A
SIDNEY         CLOUDY    52  44  74 SE6       30.30F
$$

NEZ057>060-069>072-079>082-301700-
SOUTHWEST NEBRASKA

CITY           SKY/WX    TMP DP  RH WIND       PRES   REMARKS
NORTH PLATTE   MOSUNNY   52  37  56 N8        30.31F
IMPERIAL       SUNNY     53  39  59 N10       30.31F
LEXINGTON      SUNNY     54  37  53 N10G20    30.29S
MCCOOK         SUNNY     56  38  50 N18G26    30.30F
OGALLALA       MOSUNNY   51  39  65 CALM      30.32S
$$

NEZ005>010-023>029-035>040-094-301700-
NORTH CENTRAL NEBRASKA

CITY           SKY/WX    TMP DP  RH WIND       PRES   REMARKS
VALENTINE      SUNNY     51  32  48 NE12      30.33F
AINSWORTH      SUNNY     50  37  59 N8        30.32F
BROKEN BOW     SUNNY     54  35  48 N15G22    30.29S
O`NEILL        MOSUNNY   51  43  73 N9        30.31S
ORD            PTSUNNY   52  42  69 N13       30.28S
THEDFORD       MOSUNNY   51  38  59 NE10      30.33S
$$

NEZ041-046>049-061>064-073>077-083>087-301700-
SOUTH CENTRAL NEBRASKA

CITY           SKY/WX    TMP DP  RH WIND       PRES   REMARKS
GRAND ISLAND   MOSUNNY   56  43  61 N17       30.26S
AURORA         MOSUNNY   56  43  62 N16       30.25S
HASTINGS       PTSUNNY   56  45  66 N15       30.24F
HEBRON         CLOUDY    53  44  70 N14       30.22R
HOLDREGE       PTSUNNY   54  41  62 N16       30.27S
KEARNEY *      PTSUNNY   55  41  58 N18       30.27S
YORK           PTSUNNY   55  46  71 N18G25    30.24S
$$

NEZ011>018-030>034-042>045-301700-
NORTHEAST NEBRASKA

CITY           SKY/WX    TMP DP  RH WIND       PRES   REMARKS
NORFOLK        MOSUNNY   55  43  63 N17G24    30.26S
ALBION         MOSUNNY   54  43  66 N14G20    30.27S
BLAIR          CLOUDY    53  45  72 N15G22    30.19S
COLUMBUS *     MOSUNNY   55  43  62 N16G22    30.25S
FREMONT        CLOUDY    56  44  64 N13G21    30.22R
TEKAMAH        CLOUDY    56  44  64 N21       30.21S
WAYNE          PTSUNNY   54  44  67 N16G23    30.26S
$$

NEZ050>053-065>068-078-088>093-301700-
SOUTHEAST NEBRASKA

CITY           SKY/WX    TMP DP  RH WIND       PRES   REMARKS
LINCOLN        CLOUDY    56  45  66 N18       30.21F
OMAHA EPPLEY   CLOUDY    55  47  74 N18G24    30.18S
BEATRICE       CLOUDY    52  47  81 N16       30.20R
FALLS CITY     CLOUDY    55  51  86 N13       30.14S
NEBRASKA CITY  CLOUDY    55  48  79 N14       30.17R
PLATTSMOUTH    CLOUDY    55  46  73 N14       30.18R
$$

NEZ044-045-051>053-067-301700-
OMAHA AREA

CITY           SKY/WX    TMP DP  RH WIND       PRES   REMARKS
OMAHA EPPLEY   CLOUDY    55  47  74 N18G24    30.18S
BLAIR          CLOUDY    53  45  72 N15G22    30.19S
FREMONT        CLOUDY    56  44  64 N13G21    30.22R
MILLARD        CLOUDY    55  46  73 N9        30.19S
OFFUTT AFB     CLOUDY    56  48  74 N9        30.18R
PLATTSMOUTH    CLOUDY    55  46  73 N14       30.18R
WAHOO          CLOUDY    55  45  68 N21G26    30.21R
$$


USA.gov is the U.S. government's official web portal to all federal, state and local government web resources and services.